Location: Shenandoah County Park
(38.9356°N, 78.4524°W)
Time: 14:29:45
(UTC-05:00)

Vanguard 2 Rocket - Pass Details

Date: 02 December 2023
Orbit: 555 x 3309 km, 32.9° (Epoch: 03 March)

Event Time Altitude Azimuth Distance (km) Brightness Sun altitude
Rises 15:23:19 0° 239° (WSW) 6,498 13.0 13.2°
Reaches altitude 10° 15:27:17 10° 236° (SW) 5,737 13.6 12.6°
Maximum altitude 15:45:55 63° 161° (SSE) 3,571 10.2 9.9°
Drops below altitude 10° 16:04:15 10° 87° (E) 5,662 10.5 7.0°
Sets 16:08:07 0° 84° (E) 6,414 10.7 6.4°
